TIANPING 3A-01

导读 | 豆包AI

TIANPING 3A-01(天平三号A01星)是中国于2024年10月22日在太原卫星发射中心,由长征六号运载火箭发射升空的遥感卫星,目前处于在轨运行状态。作为天平系列卫星成员,延续了天平系列技术积累,该卫星将依托遥感能力,服务于国土测绘、资源勘查、城市规划与生态环境监测等多个国民经济领域,助力我国遥感应用体系的完善。

基本信息
目录编号:
61614
目录名称:
TIANPING 3A-01
国际标识:
2024-189A
轨道中心:
EARTH
卫星名称:
TIANPING 3A-01
卫星全名:
TIANPING 3A-01
卫星状态:
在轨 (已飞行498 天)
发射日期:
2024-10-22 UTC
国别 :
中国 (CN)
星等 :
--
轨道信息
数据来源 国际轨道数据 AOE轨道数据
星历时间 2026-03-04T20:26:23+0800
5小时前
查看轨道信息
2026-02-26T09:00:00+0800
6天前
查看轨道信息
半长轴 6942.115km 6941.675km
偏心率 0.0002464 0.0002294
轨道倾角 97.535° 97.535°
近地点辐角 69.288° 119.347°
升交点赤经 86.988° 80.706°
平近点角 290.861° 186.904°
近地点 562.267km 561.945km
远地点 565.689km 565.131km
周期 95.939分钟 95.930分钟
每日圈数 15.009461 15.010887
详细信息
使用方式:
暂无
2D轨道图
3D轨道图
轨道高度分析图
轨道倾角分析图
轨道综合分析图
查看轨道综合分析图